Αίθριος ουρανός
Αίθριος ουρανός
Αίθριος ουρανός
Αίθριος ουρανός
Αίθριος ουρανός
Αίθριος ουρανός
Αίθριος ουρανός
(°C)
19°
19°
17°
16°
14°
13°
12°
(°C)
13°
13°
12°
11°
10°
ΒΒΔ
ΒΒΔ
ΒΒΔ
Β
ΒΑ
Β
Β
(χλμ / ω)
17-36
17-34
13-31
10-25
6-16
6-11
7-13
(χιλιοστά)
0
0
0
0
0
0
0
(%)
0
0
0
0
0
0
0

Ανύψωση ήλιου

/ 19.7°
sun-icon
UV 3
07:58
17:47
Αύξων μηνίσκος (φάση σελήνης) (76°)
13:22
23:47

METAR για Alcantarilla (LERI)

Χρόνος Συνθήκες Θερμοκρασία/
Σημείο δρόσου
Άνεμος Ορατότητα Καιρός Νέφη Πίεση Αλλαγή Ανεπεξέργαστο
VFR 19°C / 0°C 340º variable 300º to 020º 9kt >10km - Clouds and Visibility OK 1018 No Significant change LERI 291400Z 34009KT 300V020 CAVOK 19/00 Q1018 NOSIG
VFR 19°C / 1°C 310º variable 260º to 010º 8kt >10km - Clouds and Visibility OK 1018 No Significant change LERI 291330Z 31008KT 260V010 CAVOK 19/01 Q1018 NOSIG
VFR 19°C / 0°C 330º variable 290º to 030º 7kt >10km - Clouds and Visibility OK 1019 No Significant change LERI 291300Z 33007KT 290V030 CAVOK 19/00 Q1019 NOSIG
VFR 18°C / 0°C 300º variable 270º to 010º 11kt >10km - Clouds and Visibility OK 1020 No Significant change LERI 291230Z 30011KT 270V010 CAVOK 18/00 Q1020 NOSIG
VFR 18°C / 0°C 290º variable 250º to 330º 9kt >10km - Clouds and Visibility OK 1020 No Significant change LERI 291200Z 29009KT 250V330 CAVOK 18/00 Q1020 NOSIG
VFR 18°C / 1°C 290º variable 260º to 340º 11kt >10km - Clouds and Visibility OK 1020 No Significant change LERI 291130Z 29011KT 260V340 CAVOK 18/01 Q1020 NOSIG
VFR 17°C / 0°C 300º variable 260º to 330º 11kt >10km - Clouds and Visibility OK 1021 No Significant change LERI 291100Z 30011KT 260V330 CAVOK 17/00 Q1021 NOSIG
VFR 16°C / 0°C 300º variable 260º to 330º 14kt >10km - Clouds and Visibility OK 1021 No Significant change LERI 291030Z 30014KT 260V330 CAVOK 16/00 Q1021 NOSIG
VFR 16°C / 0°C 290º variable 260º to 330º 12kt >10km - Clouds and Visibility OK 1022 No Significant change LERI 291000Z 29012KT 260V330 CAVOK 16/M00 Q1022 NOSIG
VFR 15°C / 0°C 290º variable 260º to 320º 14kt >10km - Clouds and Visibility OK 1022 No Significant change LERI 290930Z 29014KT 260V320 CAVOK 15/M00 Q1022 NOSIG
VFR 15°C / 0°C 310º variable 280º to 340º 13kt >10km - Clouds and Visibility OK 1021 No Significant change LERI 290900Z 31013KT 280V340 CAVOK 15/00 Q1021 NOSIG
VFR 14°C / 0°C 310º variable 280º to 340º 9kt >10km - Clouds and Visibility OK 1022 No Significant change LERI 290830Z 31009KT 280V340 CAVOK 14/M00 Q1022 NOSIG
VFR 11°C / 0°C 220º variable 160º to 290º 3kt >10km - Clouds and Visibility OK 1022 No Significant change LERI 290800Z 22003KT 160V290 CAVOK 11/00 Q1022 NOSIG
VFR 10°C / 0°C variable 2kt >10km - Clouds and Visibility OK 1021 No Significant change LERI 290730Z VRB02KT CAVOK 10/M00 Q1021 NOSIG
VFR 10°C / 0°C variable 2kt >10km - Clouds and Visibility OK 1021 No Significant change LERI 290700Z VRB02KT CAVOK 10/M00 Q1021 NOSIG
VFR 10°C / 0°C 200º variable 160º to 240º 7kt >10km - Clouds and Visibility OK 1021 No Significant change LERI 290630Z 20007KT 160V240 CAVOK 10/00 Q1021 NOSIG
VFR 10°C / 0°C 230º 7kt >10km - Clouds and Visibility OK 1021 No Significant change LERI 290600Z 23007KT CAVOK 10/00 Q1021 NOSIG
VFR 16°C / 0°C 330º variable 310º to 010º 11kt >10km - Clouds and Visibility OK 1021 No Significant change LERI 281800Z 33011KT 310V010 CAVOK 16/M00 Q1021 NOSIG
VFR 16°C / -1°C 350º variable 320º to 020º 8kt >10km - Clouds and Visibility OK 1021 No Significant change LERI 281730Z 35008KT 320V020 CAVOK 16/M01 Q1021 NOSIG
VFR 16°C / -2°C variable 1kt >10km - Clouds and Visibility OK 1021 No Significant change LERI 281700Z VRB01KT CAVOK 16/M02 Q1021 NOSIG
VFR 17°C / -2°C 330º variable 280º to 060º 7kt >10km - Clouds and Visibility OK 1020 No Significant change LERI 281630Z 33007KT 280V060 CAVOK 17/M02 Q1020 NOSIG
VFR 18°C / -2°C 340º variable 300º to 020º 8kt >10km - Clouds and Visibility OK 1020 No Significant change LERI 281600Z 34008KT 300V020 CAVOK 18/M02 Q1020 NOSIG
VFR 19°C / -2°C 330º variable 300º to 010º 11kt >10km - Clouds and Visibility OK 1019 No Significant change LERI 281530Z 33011KT 300V010 CAVOK 19/M02 Q1019 NOSIG
VFR 19°C / -2°C 320º variable 290º to 020º 12kt >10km - Clouds and Visibility OK 1019 No Significant change LERI 281500Z 32012KT 290V020 CAVOK 19/M02 Q1019 NOSIG

VFR

19°C / 0°C

[Περισσότερο]
Άνεμος 340º variable 300º to 020º 9kt
Ορατότητα >10km
Καιρός -
Νέφη Clouds and Visibility OK
Πίεση 1018
Αλλαγή No Significant change
Ανεπεξέργαστο LERI 291400Z 34009KT 300V020 CAVOK 19/00 Q1018 NOSIG

VFR

19°C / 1°C

[Περισσότερο]
Άνεμος 310º variable 260º to 010º 8kt
Ορατότητα >10km
Καιρός -
Νέφη Clouds and Visibility OK
Πίεση 1018
Αλλαγή No Significant change
Ανεπεξέργαστο LERI 291330Z 31008KT 260V010 CAVOK 19/01 Q1018 NOSIG

VFR

19°C / 0°C

[Περισσότερο]
Άνεμος 330º variable 290º to 030º 7kt
Ορατότητα >10km
Καιρός -
Νέφη Clouds and Visibility OK
Πίεση 1019
Αλλαγή No Significant change
Ανεπεξέργαστο LERI 291300Z 33007KT 290V030 CAVOK 19/00 Q1019 NOSIG

VFR

18°C / 0°C

[Περισσότερο]
Άνεμος 300º variable 270º to 010º 11kt
Ορατότητα >10km
Καιρός -
Νέφη Clouds and Visibility OK
Πίεση 1020
Αλλαγή No Significant change
Ανεπεξέργαστο LERI 291230Z 30011KT 270V010 CAVOK 18/00 Q1020 NOSIG

VFR

18°C / 0°C

[Περισσότερο]
Άνεμος 290º variable 250º to 330º 9kt
Ορατότητα >10km
Καιρός -
Νέφη Clouds and Visibility OK
Πίεση 1020
Αλλαγή No Significant change
Ανεπεξέργαστο LERI 291200Z 29009KT 250V330 CAVOK 18/00 Q1020 NOSIG

VFR

18°C / 1°C

[Περισσότερο]
Άνεμος 290º variable 260º to 340º 11kt
Ορατότητα >10km
Καιρός -
Νέφη Clouds and Visibility OK
Πίεση 1020
Αλλαγή No Significant change
Ανεπεξέργαστο LERI 291130Z 29011KT 260V340 CAVOK 18/01 Q1020 NOSIG

VFR

17°C / 0°C

[Περισσότερο]
Άνεμος 300º variable 260º to 330º 11kt
Ορατότητα >10km
Καιρός -
Νέφη Clouds and Visibility OK
Πίεση 1021
Αλλαγή No Significant change
Ανεπεξέργαστο LERI 291100Z 30011KT 260V330 CAVOK 17/00 Q1021 NOSIG

VFR

16°C / 0°C

[Περισσότερο]
Άνεμος 300º variable 260º to 330º 14kt
Ορατότητα >10km
Καιρός -
Νέφη Clouds and Visibility OK
Πίεση 1021
Αλλαγή No Significant change
Ανεπεξέργαστο LERI 291030Z 30014KT 260V330 CAVOK 16/00 Q1021 NOSIG

VFR

16°C / 0°C

[Περισσότερο]
Άνεμος 290º variable 260º to 330º 12kt
Ορατότητα >10km
Καιρός -
Νέφη Clouds and Visibility OK
Πίεση 1022
Αλλαγή No Significant change
Ανεπεξέργαστο LERI 291000Z 29012KT 260V330 CAVOK 16/M00 Q1022 NOSIG

VFR

15°C / 0°C

[Περισσότερο]
Άνεμος 290º variable 260º to 320º 14kt
Ορατότητα >10km
Καιρός -
Νέφη Clouds and Visibility OK
Πίεση 1022
Αλλαγή No Significant change
Ανεπεξέργαστο LERI 290930Z 29014KT 260V320 CAVOK 15/M00 Q1022 NOSIG

VFR

15°C / 0°C

[Περισσότερο]
Άνεμος 310º variable 280º to 340º 13kt
Ορατότητα >10km
Καιρός -
Νέφη Clouds and Visibility OK
Πίεση 1021
Αλλαγή No Significant change
Ανεπεξέργαστο LERI 290900Z 31013KT 280V340 CAVOK 15/00 Q1021 NOSIG

VFR

14°C / 0°C

[Περισσότερο]
Άνεμος 310º variable 280º to 340º 9kt
Ορατότητα >10km
Καιρός -
Νέφη Clouds and Visibility OK
Πίεση 1022
Αλλαγή No Significant change
Ανεπεξέργαστο LERI 290830Z 31009KT 280V340 CAVOK 14/M00 Q1022 NOSIG

VFR

11°C / 0°C

[Περισσότερο]
Άνεμος 220º variable 160º to 290º 3kt
Ορατότητα >10km
Καιρός -
Νέφη Clouds and Visibility OK
Πίεση 1022
Αλλαγή No Significant change
Ανεπεξέργαστο LERI 290800Z 22003KT 160V290 CAVOK 11/00 Q1022 NOSIG

VFR

10°C / 0°C

[Περισσότερο]
Άνεμος variable 2kt
Ορατότητα >10km
Καιρός -
Νέφη Clouds and Visibility OK
Πίεση 1021
Αλλαγή No Significant change
Ανεπεξέργαστο LERI 290730Z VRB02KT CAVOK 10/M00 Q1021 NOSIG

VFR

10°C / 0°C

[Περισσότερο]
Άνεμος variable 2kt
Ορατότητα >10km
Καιρός -
Νέφη Clouds and Visibility OK
Πίεση 1021
Αλλαγή No Significant change
Ανεπεξέργαστο LERI 290700Z VRB02KT CAVOK 10/M00 Q1021 NOSIG

VFR

10°C / 0°C

[Περισσότερο]
Άνεμος 200º variable 160º to 240º 7kt
Ορατότητα >10km
Καιρός -
Νέφη Clouds and Visibility OK
Πίεση 1021
Αλλαγή No Significant change
Ανεπεξέργαστο LERI 290630Z 20007KT 160V240 CAVOK 10/00 Q1021 NOSIG

VFR

10°C / 0°C

[Περισσότερο]
Άνεμος 230º 7kt
Ορατότητα >10km
Καιρός -
Νέφη Clouds and Visibility OK
Πίεση 1021
Αλλαγή No Significant change
Ανεπεξέργαστο LERI 290600Z 23007KT CAVOK 10/00 Q1021 NOSIG

VFR

16°C / 0°C

[Περισσότερο]
Άνεμος 330º variable 310º to 010º 11kt
Ορατότητα >10km
Καιρός -
Νέφη Clouds and Visibility OK
Πίεση 1021
Αλλαγή No Significant change
Ανεπεξέργαστο LERI 281800Z 33011KT 310V010 CAVOK 16/M00 Q1021 NOSIG

VFR

16°C / -1°C

[Περισσότερο]
Άνεμος 350º variable 320º to 020º 8kt
Ορατότητα >10km
Καιρός -
Νέφη Clouds and Visibility OK
Πίεση 1021
Αλλαγή No Significant change
Ανεπεξέργαστο LERI 281730Z 35008KT 320V020 CAVOK 16/M01 Q1021 NOSIG

VFR

16°C / -2°C

[Περισσότερο]
Άνεμος variable 1kt
Ορατότητα >10km
Καιρός -
Νέφη Clouds and Visibility OK
Πίεση 1021
Αλλαγή No Significant change
Ανεπεξέργαστο LERI 281700Z VRB01KT CAVOK 16/M02 Q1021 NOSIG

VFR

17°C / -2°C

[Περισσότερο]
Άνεμος 330º variable 280º to 060º 7kt
Ορατότητα >10km
Καιρός -
Νέφη Clouds and Visibility OK
Πίεση 1020
Αλλαγή No Significant change
Ανεπεξέργαστο LERI 281630Z 33007KT 280V060 CAVOK 17/M02 Q1020 NOSIG

VFR

18°C / -2°C

[Περισσότερο]
Άνεμος 340º variable 300º to 020º 8kt
Ορατότητα >10km
Καιρός -
Νέφη Clouds and Visibility OK
Πίεση 1020
Αλλαγή No Significant change
Ανεπεξέργαστο LERI 281600Z 34008KT 300V020 CAVOK 18/M02 Q1020 NOSIG

VFR

19°C / -2°C

[Περισσότερο]
Άνεμος 330º variable 300º to 010º 11kt
Ορατότητα >10km
Καιρός -
Νέφη Clouds and Visibility OK
Πίεση 1019
Αλλαγή No Significant change
Ανεπεξέργαστο LERI 281530Z 33011KT 300V010 CAVOK 19/M02 Q1019 NOSIG

VFR

19°C / -2°C

[Περισσότερο]
Άνεμος 320º variable 290º to 020º 12kt
Ορατότητα >10km
Καιρός -
Νέφη Clouds and Visibility OK
Πίεση 1019
Αλλαγή No Significant change
Ανεπεξέργαστο LERI 281500Z 32012KT 290V020 CAVOK 19/M02 Q1019 NOSIG

TAF για Alcantarilla (LERI)

From till


Maximum Temperature 19ºC on . Minimum Temperature 7ºC on .
From till Wind 310º 8kt. Visibility 10km or more. Nil Significant Cloud.

Ανεπεξέργαστο: TAF LERI 291100Z 2912/3012 31008KT CAVOK TX19/2915Z TN07/3006Z

Ραντάρ για Alcantarilla

Ψιλοβρέχει
Φως
Μέτρια
Βαριά
Πολύ βαρύ
Χαλάζι

Ο δείκτης θέσης τοποθετείται στο Alcantarilla. Αυτή η κινούμενη εικόνα δείχνει το ραντάρ βροχόπτωσης για την τελευταία 1 ώρα. Το ψιλόβροχο ή το ελαφρύ χιόνι μπορεί να είναι αόρατο για το ραντάρ. Η ένταση της βροχόπτωσης είναι χρωματικά κωδικοποιημένη και κυμαίνεται από γαλάζιο έως πορτοκαλί.
Πηγή δεδομένων ραντάρ: AEMET.

Τρέχουσες εικόνες δορυφόρου και βροχής για Alcantarilla, Ισπανία

Η ένδειξη τοποθεσίας τοποθετείται στο Alcantarilla. [Περισσότερο]

Οι δορυφορικές εικόνες σε πραγματικό χρόνο συνδυάζουν ορατό φως κατά τη διάρκεια της ημέρας με υπέρυθρη ακτινοβολία κατά τη διάρκεια της νύχτας. Κατά τη διάρκεια της νύχτας, η εικόνα δεν είναι σκοτεινή μιας και η υπέρυθρη ακτινοβολία μπορεί να εντοπίσει τις διαφορές στη θερμοκρασία. Δυστυχώς, είναι δύσκολο να ξεχωρίσουν οι χαμηλές νεφώσεις και η ομίχλη από τις θερμοκρασίες εδάφους και έτσι μπορεί να είναι σχετικά αόρατα κατά τη διάρκεια της νύχτας. Οι εικόνες από τον δορυφόρο Meteosat για την Ευρώπη ενημερώνονται σε πραγματικό χρόνο κάθε 5 λεπτά. Οι εικόνες από τους δορυφόρους GOES-16/GOES-17 (Βόρεια & Λατινική Αμερική) και Himawari (Ασία) ενημερώνονται κάθε 10 λεπτά.

Η βροχόπτωση εκτιμάται από ραντάρ και δορυφόρους. Οι εκτιμήσεις βροχόπτωσης από τους δορυφόρους είναι λιγότερο ακριβείς τη νύχτα απ' ό,τι κατά τη διάρκεια της ημέρας. Με πορτοκαλί σταυροούς οι θέσεις όπου αστραπές εντοπίζονται (για Ευρώπη).

Πνευματική ιδιοκτησία 2022 EUMETSAT / meteoblue. Δεδομένα αστραπών παρεχόμενα από nowcast.

Επιστροφή στην κορυφή